Stations météo

Publicité
Konstanz, Allemagne (10929): Température de l'air & dewpoint: 14.07.2018 14:00:00 - 20.07.2018 14:00:00 (CEST)Konstanz, Allemagne (10929): Température de l'air 5cm & Température de l'air -5cm: 14.07.2018 14:00:00 - 20.07.2018 14:00:00 (CEST)Konstanz, Allemagne (10929): Température de l'air -20cm & Température de l'air -100cm: 14.07.2018 14:00:00 - 20.07.2018 14:00:00 (CEST)Konstanz, Allemagne (10929): Vitesse du vent & gusts: 14.07.2018 14:00:00 - 20.07.2018 14:00:00 (CEST)Konstanz, Allemagne (10929): Direction du vent: 14.07.2018 14:00:00 - 20.07.2018 14:00:00 (CEST)Konstanz, Allemagne (10929): reduced air pressure: 14.07.2018 14:00:00 - 20.07.2018 14:00:00 (CEST)Konstanz, Allemagne (10929): visibility: 14.07.2018 14:00:00 - 20.07.2018 14:00:00 (CEST)Konstanz, Allemagne (10929): Ensoleillement: 14.07.2018 14:00:00 - 20.07.2018 14:00:00 (CEST)Konstanz, Allemagne (10929): Quantités de précipitations: 14.07.2018 14:00:00 - 20.07.2018 14:00:00 (CEST)
Date & Time tt [°C] td [°C] tt 5cm [°C] tt -5cm [°C] tt -20cm [°C] tt -100cm [°C] ff [km/h] ff [knt] fx [km/h] fx [knt] dd ppp [hPa] vv [km] sd [min] rr [mm]
20.07.2018 14:00:00 29,6 14,5 35,4 35,5 26,6 21,8 5 3 13 7 WNW 1010,5 38 60 0,0
20.07.2018 13:00:00 28,6 12,9 34,9 33,3 25,8 21,7 7 4 14 8 S 1011,3 35 59 0,0
20.07.2018 12:00:00 26,4 13,4 29,3 30,2 25,2 21,7 5 3 11 6 S 1012,3 45 43 0,0
20.07.2018 11:00:00 24,8 13,6 27,4 28,2 24,8 21,7 5 3 13 7 WNW 1012,8 48 50 0,0
20.07.2018 10:00:00 24,1 12,4 26,1 25,1 24,7 21,7 5 3 9 5 WSW 1013,0 46 60 0,0
20.07.2018 09:00:00 21,7 11,5 21,7 22,9 24,9 21,7 5 3 8 4 W 1013,3 58 60 0,0
20.07.2018 08:00:00 19,7 11,9 20,6 22,7 25,1 21,7 4 2 7 4 NW 1013,7 57 53 0,0
20.07.2018 07:00:00 18,5 12,5 17,6 22,3 25,4 21,7 3 1 8 4 WNW 1014,0 57 33 0,0
20.07.2018 06:00:00 18,7 11,9 16,7 22,4 25,8 21,7 5 3 8 4 NW 1013,8 62 0 0,0
20.07.2018 05:00:00 18,6 12,2 16,1 22,9 26,2 21,7 5 3 9 5 W 1013,8 56 0 0,0
20.07.2018 04:00:00 20,0 11,1 18,0 23,4 26,7 21,6 7 4 11 6 NNW 1013,7 70 0 0,0
20.07.2018 03:00:00 20,2 10,8 18,0 24,1 27,1 21,6 6 4 11 6 N 1013,7 66 0 0,0
20.07.2018 02:00:00 20,7 11,6 18,2 24,9 27,6 21,6 5 3 11 6 N 1014,2 63 0 0,0
20.07.2018 01:00:00 21,3 12,1 18,9 25,7 28,1 21,6 7 4 12 7 N 1014,1 64 0 0,0
20.07.2018 00:00:00 22,5 12,4 20,3 26,7 28,5 21,6 8 4 13 7 NNE 1013,9 64 0 0,0
19.07.2018 23:00:00 23,3 13,6 20,6 27,8 29,0 21,6 4 2 6 4 ENE 1013,6 61 0 0,0
19.07.2018 22:00:00 24,6 11,9 22,0 29,2 29,5 21,6 5 3 11 6 NE 1013,4 66 0 0,0
19.07.2018 21:00:00 26,5 11,7 25,2 31,0 29,8 21,6 5 3 8 4 ENE 1012,6 69 15 0,0
19.07.2018 20:00:00 28,5 9,7 28,4 33,1 29,9 21,6 4 2 9 5 E 1012,1 69 56 0,0
19.07.2018 19:00:00 29,9 9,7 31,8 35,1 29,7 21,6 6 3 11 6 E 1011,9 61 59 0,0
19.07.2018 18:00:00 30,8 10,0 35,0 36,5 29,3 21,6 5 3 16 9 E 1012,0 48 60 0,0
19.07.2018 17:00:00 30,6 9,8 36,2 37,3 28,7 21,6 6 3 14 8 ENE 1012,4 35 60 0,0
19.07.2018 16:00:00 29,8 10,6 34,4 37,3 27,9 21,6 8 4 17 9 ENE 1013,0 35 60 0,0
19.07.2018 15:00:00 30,0 10,5 35,8 36,7 27,0 21,6 6 3 16 9 NE 1013,3 39 60 0,0
19.07.2018 14:00:00 29,1 12,1 35,1 35,4 26,1 21,6 9 5 14 8 E 1014,1 38 60 0,0
19.07.2018 13:00:00 27,6 12,4 33,3 33,4 25,2 21,6 7 4 16 8 S 1014,6 40 60 0,0
19.07.2018 12:00:00 26,6 12,3 30,9 30,8 24,4 21,6 8 5 16 9 S 1015,1 40 60 0,0
19.07.2018 11:00:00 24,5 12,2 28,6 27,9 23,9 21,6 7 4 13 7 S 1015,5 44 60 0,0
19.07.2018 10:00:00 23,4 11,4 25,6 24,0 23,9 21,6 6 3 12 6 NNE 1015,8 53 60 0,0
19.07.2018 09:00:00 21,5 11,3 20,9 21,7 24,0 21,5 3 2 10 6 NNE 1016,0 50 59 0,0
19.07.2018 08:00:00 19,0 12,2 20,0 21,5 24,3 21,5 3 2 7 4 WNW 1016,2 59 60 0,0
19.07.2018 07:00:00 17,1 12,0 15,7 21,0 24,6 21,5 4 2 6 3 W 1016,5 50 39 0,0
19.07.2018 06:00:00 17,0 11,0 14,9 21,3 25,0 21,5 3 2 10 5 NNW 1016,4 65 0 0,0
19.07.2018 05:00:00 17,7 10,6 15,2 21,9 25,5 21,5 6 3 8 4 N 1016,2 64 0 0,0
19.07.2018 04:00:00 18,3 10,5 16,1 22,6 25,9 21,5 2 1 7 4 N 1016,2 70 0 0,0
19.07.2018 03:00:00 19,1 11,5 16,3 23,3 26,3 21,5 3 2 9 5 NW 1016,3 66 0 0,0
19.07.2018 02:00:00 20,3 12,0 18,4 24,0 26,8 21,5 6 3 13 7 WNW 1015,9 58 0 0,0
19.07.2018 01:00:00 21,6 11,7 19,3 24,9 27,2 21,5 8 4 17 9 NNE 1015,7 69 0 0,0
19.07.2018 00:00:00 21,7 12,8 18,9 25,8 27,7 21,5 3 2 15 8 N 1015,3 60 0 0,0
18.07.2018 23:00:00 22,8 12,8 21,3 26,9 28,2 21,5 8 4 16 9 NNE 1014,7 56 0 0,0
18.07.2018 22:00:00 23,6 13,3 22,2 28,3 28,6 21,5 9 5 16 8 N 1013,9 62 0 0,0
18.07.2018 21:00:00 25,5 12,7 24,0 30,1 28,9 21,5 4 2 7 4 E 1013,1 70 22 0,0
18.07.2018 20:00:00 28,1 9,4 28,2 32,3 29,0 21,6 4 2 8 4 E 1012,6 70 60 0,0
18.07.2018 19:00:00 29,7 8,1 32,8 34,4 28,8 21,6 6 3 12 6 E 1012,6 62 60 0,0
18.07.2018 18:00:00 30,1 8,4 34,3 35,7 28,3 21,6 7 4 14 8 E 1012,9 46 60 0,0
18.07.2018 17:00:00 29,2 8,7 34,3 36,4 27,7 21,6 7 4 20 11 ESE 1013,6 52 60 0,0
18.07.2018 16:00:00 30,4 8,7 35,1 36,4 26,8 21,6 8 4 16 8 E 1013,6 43 60 0,0
18.07.2018 15:00:00 28,5 8,9 34,4 35,8 25,9 21,6 10 5 17 9 E 1014,4 37 60 0,0
18.07.2018 14:00:00 28,6 11,2 34,0 34,4 24,8 21,6 9 5 15 8 E 1014,9 39 60 0,0
18.07.2018 13:00:00 26,7 12,6 31,8 32,4 23,9 21,6 9 5 15 8 ENE 1015,6 42 60 0,0
18.07.2018 12:00:00 25,0 13,0 29,3 29,7 23,1 21,6 9 5 13 7 E 1016,2 45 60 0,0
18.07.2018 11:00:00 23,8 12,8 27,6 26,4 22,5 21,5 6 3 10 6 E 1016,8 50 60 0,0
18.07.2018 10:00:00 22,0 13,1 23,4 22,4 22,4 21,5 5 3 10 6 E 1017,4 42 60 0,0
18.07.2018 09:00:00 20,7 13,7 19,0 20,1 22,5 21,5 2 1 6 3 ESE 1017,6 43 60 0,0
18.07.2018 08:00:00 17,6 14,9 18,4 19,8 22,7 21,5 3 2 6 3 WSW 1018,0 33 60 0,0
18.07.2018 07:00:00 15,8 13,7 14,9 19,0 23,0 21,5 4 2 9 5 NNW 1018,4 35 14 0,0
18.07.2018 06:00:00 15,6 13,5 14,1 19,2 23,3 21,5 6 3 9 5 W 1018,2 34 0 0,0
18.07.2018 05:00:00 15,9 13,7 14,1 19,5 23,6 21,5 5 3 9 5 N 1018,0 41 0 0,0
18.07.2018 04:00:00 16,3 13,2 15,1 20,0 24,0 21,5 6 4 9 5 W 1018,0 47 0 0,0
18.07.2018 03:00:00 16,6 13,1 15,1 20,4 24,3 21,5 5 3 11 6 N 1018,0 53 0 0,0
18.07.2018 02:00:00 17,4 13,6 16,4 20,8 24,8 21,5 8 4 11 6 NNW 1017,9 56 0 0,0
18.07.2018 01:00:00 17,7 14,0 16,4 21,5 25,2 21,5 8 5 12 7 WNW 1017,9 50 0 0,0
18.07.2018 00:00:00 19,0 13,5 16,9 22,3 25,6 21,5 7 4 8 5 W 1017,6 70 0 0,0
17.07.2018 23:00:00 19,9 12,1 18,2 23,1 26,0 21,5 4 2 11 6 N 1017,1 70 0 0,0
17.07.2018 22:00:00 20,7 13,3 19,5 23,9 26,4 21,5 6 4 16 9 NNE 1017,1 70 0 0,0
17.07.2018 21:00:00 21,2 15,6 19,7 24,9 26,8 21,5 4 2 9 5 ENE 1015,9 70 28 0,0
17.07.2018 20:00:00 23,4 15,6 22,1 26,4 27,1 21,5 5 3 12 6 N 1015,1 70 58 0,0
17.07.2018 19:00:00 21,9 15,7 21,7 27,2 27,5 21,5 6 3 24 13 N 1015,1 70 9 0,1
17.07.2018 18:00:00 19,8 12,7 17,2 27,7 27,7 21,5 18 10 32 17 NW 1016,1 33 0 1,0
17.07.2018 17:00:00 24,7 11,3 25,0 31,1 27,6 21,4 9 5 18 10 NW 1015,4 70 0 0,0
17.07.2018 16:00:00 27,4 8,0 31,0 33,9 27,2 21,4 11 6 31 17 WSW 1014,4 70 46 0,0
17.07.2018 15:00:00 24,1 8,3 25,9 31,5 26,8 21,4 20 11 43 23 WSW 1014,6 70 9 0,0
17.07.2018 14:00:00 28,5 9,1 34,8 34,7 25,9 21,4 14 8 26 14 WSW 1013,6 42 60 0,0
17.07.2018 13:00:00 26,5 12,7 31,6 32,0 25,1 21,4 10 5 19 11 W 1014,4 55 60 0,0
17.07.2018 12:00:00 24,8 13,2 28,6 29,5 24,5 21,4 9 5 18 10 WSW 1015,0 59 60 0,0
17.07.2018 11:00:00 24,0 12,8 27,8 27,4 24,1 21,4 7 4 14 8 WSW 1015,1 69 60 0,0
17.07.2018 10:00:00 22,6 13,0 25,2 24,4 24,0 21,4 8 4 13 7 WSW 1015,2 66 60 0,0
17.07.2018 09:00:00 20,5 12,8 20,4 21,9 24,1 21,4 4 2 10 5 W 1015,3 44 60 0,0
17.07.2018 08:00:00 18,1 14,4 19,3 21,7 24,4 21,3 4 2 7 4 WSW 1015,6 37 60 0,0
17.07.2018 07:00:00 16,7 14,0 16,0 21,0 24,7 21,3 4 2 9 5 NNW 1015,4 38 42 0,0
17.07.2018 06:00:00 16,7 14,4 15,6 21,3 25,1 21,3 5 3 6 4 NW 1015,0 39 0 0,0
17.07.2018 05:00:00 16,9 14,8 14,5 21,8 25,5 21,3 4 2 6 3 N 1014,5 41 0 0,0
17.07.2018 04:00:00 17,2 14,3 15,0 22,4 26,0 21,3 4 2 7 4 N 1014,1 44 0 0,0
17.07.2018 03:00:00 17,8 14,0 15,7 23,1 26,4 21,3 5 3 9 5 W 1014,1 52 0 0,0
17.07.2018 02:00:00 18,4 14,0 16,4 23,8 26,9 21,3 0 0 9 5 N 1014,0 49 0 0,0
17.07.2018 01:00:00 19,4 13,5 17,6 24,6 27,4 21,3 6 3 7 4 WNW 1013,4 67 0 0,0
17.07.2018 00:00:00 20,1 13,5 17,7 25,6 27,9 21,3 4 2 8 5 NNE 1012,7 70 0 0,0
16.07.2018 23:00:00 21,4 13,3 19,2 26,7 28,4 21,3 4 2 16 9 NE 1012,1 70 0 0,0
16.07.2018 22:00:00 22,6 12,9 21,5 28,0 28,9 21,3 8 4 17 9 NE 1011,3 70 0 0,0
16.07.2018 21:00:00 23,9 13,3 23,0 29,8 29,2 21,3 9 5 22 12 NNE 1010,3 70 48 0,0
16.07.2018 20:00:00 26,1 12,0 26,4 32,2 29,3 21,3 9 5 18 10 NNE 1009,1 70 60 0,0
16.07.2018 19:00:00 27,6 10,2 29,4 34,0 29,2 21,3 10 6 18 10 N 1008,7 40 60 0,0
16.07.2018 18:00:00 27,9 9,2 32,2 35,2 28,9 21,3 10 5 23 12 NNE 1008,9 54 60 0,0
16.07.2018 17:00:00 27,0 9,3 30,2 35,9 28,4 21,3 10 5 28 15 N 1009,5 70 54 0,0
16.07.2018 16:00:00 27,6 11,7 32,4 36,7 27,6 21,2 13 7 28 15 N 1009,7 38 60 0,0
16.07.2018 15:00:00 27,2 11,7 33,4 36,1 26,7 21,2 9 5 18 10 ENE 1010,0 43 60 0,0
16.07.2018 14:00:00 26,0 13,2 32,7 34,8 25,8 21,2 9 5 17 9 E 1011,1 37 60 0,0
16.07.2018 13:00:00 25,0 14,4 31,0 33,0 25,0 21,2 9 5 18 10 E 1011,8 43 60 0,0
16.07.2018 12:00:00 23,5 14,0 28,1 30,6 24,2 21,2 8 5 19 10 SE 1012,8 49 60 0,0
16.07.2018 11:00:00 22,7 13,4 26,9 27,6 23,8 21,2 8 5 14 8 SSE 1013,0 65 60 0,0
16.07.2018 10:00:00 21,5 13,4 23,4 23,7 23,7 21,2 6 3 13 7 SSE 1013,9 63 60 0,0
16.07.2018 09:00:00 19,5 12,5 19,4 21,6 23,8 21,2 6 4 12 6 W 1014,7 70 59 0,0
16.07.2018 08:00:00 18,1 13,6 18,9 21,7 24,0 21,2 4 2 9 5 W 1015,1 70 22 0,0
16.07.2018 07:00:00 17,2 14,6 17,1 20,9 24,4 21,1 4 2 6 3 NNW 1015,3 64 15 0,0
16.07.2018 06:00:00 16,2 14,2 15,1 20,8 24,7 21,1 4 2 8 4 W 1015,1 58 0 0,0
16.07.2018 05:00:00 16,5 14,2 14,7 21,5 25,1 21,1 4 2 6 3 W 1015,1 70 0 0,0
16.07.2018 04:00:00 17,3 14,4 16,1 22,2 25,5 21,1 4 2 8 4 WSW 1014,8 70 0 0,0
16.07.2018 03:00:00 17,4 15,3 16,2 22,7 26,0 21,1 2 1 5 3 NW 1015,0 60 0 0,0
16.07.2018 02:00:00 17,7 15,2 16,9 23,3 26,4 21,1 3 2 4 2 N 1015,3 70 0 0,0
16.07.2018 01:00:00 18,0 15,0 17,0 24,0 26,9 21,1 3 2 17 9 W 1015,8 70 0 0,2
16.07.2018 00:00:00 18,8 14,7 17,3 24,8 27,4 21,1 8 4 29 16 WSW 1016,4 12 0 0,1
15.07.2018 23:00:00 19,7 13,6 17,0 26,2 27,9 21,1 13 7 23 12 WNW 1015,4 47 0 0,1
15.07.2018 22:00:00 20,6 12,6 20,4 27,3 28,4 21,1 0 0 9 5 N 1014,6 70 0 0,0
15.07.2018 21:00:00 20,9 11,9 20,6 28,8 28,7 21,1 7 4 20 11 SSE 1014,2 70 0 0,0
15.07.2018 20:00:00 22,2 12,4 22,9 31,1 28,9 21,0 8 5 37 20 E 1013,8 70 26 0,0
15.07.2018 19:00:00 24,9 12,0 26,4 33,3 28,8 21,0 13 7 38 20 WSW 1013,0 70 35 0,0
15.07.2018 18:00:00 28,8 12,8 31,8 34,1 28,6 21,0 10 5 21 11 N 1011,2 70 30 0,0
15.07.2018 17:00:00 27,5 11,8 29,1 35,5 28,1 21,0 7 4 18 10 NNE 1011,9 70 41 0,0
15.07.2018 16:00:00 29,2 12,5 34,5 37,1 27,2 21,0 10 6 17 9 E 1011,9 43 60 0,0
15.07.2018 15:00:00 28,0 12,5 34,0 35,8 26,3 21,0 10 5 16 9 E 1012,7 37 60 0,0
15.07.2018 14:00:00 26,6 13,6 32,1 34,1 25,4 21,0 8 5 15 8 E 1013,5 30 60 0,0
15.07.2018 13:00:00 25,0 13,4 30,0 31,5 24,6 21,0 8 4 14 8 E 1014,4 42 60 0,0
15.07.2018 12:00:00 23,9 12,5 27,3 28,3 24,1 21,0 7 4 13 7 E 1015,4 58 60 0,0
15.07.2018 11:00:00 21,5 14,4 23,9 25,3 24,0 20,9 6 4 11 6 ENE 1016,0 59 45 0,0
15.07.2018 10:00:00 18,7 15,5 19,0 22,2 24,1 20,9 5 3 11 6 SW 1016,5 65 0 0,0
15.07.2018 09:00:00 17,6 15,7 17,0 21,7 24,4 20,9 6 3 14 8 N 1016,8 29 0 0,3
15.07.2018 08:00:00 17,3 15,1 16,7 21,9 24,7 20,9 9 5 14 7 SSW 1017,0 17 0 0,6
15.07.2018 07:00:00 18,1 15,3 17,1 22,4 24,9 20,9 4 2 8 5 NNE 1016,4 20 0 0,4
15.07.2018 06:00:00 19,6 13,6 19,1 22,7 25,3 20,9 5 3 19 11 WSW 1016,0 65 0 0,0
15.07.2018 05:00:00 19,8 13,4 19,3 23,0 25,6 20,9 12 6 25 13 WNW 1016,2 70 0 0,0
15.07.2018 04:00:00 20,1 13,9 19,5 23,5 26,0 20,8 14 8 29 16 WNW 1015,9 55 0 0,0
15.07.2018 03:00:00 20,8 15,8 20,6 24,3 26,3 20,8 10 5 16 9 W 1015,8 43 0 0,0
15.07.2018 02:00:00 21,2 14,0 20,3 24,7 26,7 20,8 4 2 8 5 SW 1015,7 47 0 0,0
15.07.2018 01:00:00 21,7 14,3 20,5 25,2 27,1 20,8 3 2 11 6 NNW 1015,5 63 0 0,0
15.07.2018 00:00:00 22,1 13,4 20,1 25,8 27,6 20,8 6 4 19 10 NNE 1015,5 69 0 0,0
14.07.2018 23:00:00 23,7 13,0 21,4 26,8 28,0 20,8 6 3 18 10 ENE 1015,1 70 0 0,0
14.07.2018 22:00:00 24,1 13,5 22,5 28,1 28,4 20,8 5 3 14 8 NE 1014,8 70 0 0,0
14.07.2018 21:00:00 25,4 13,6 24,5 29,8 28,7 20,8 8 4 17 9 NNE 1013,9 70 31 0,0
14.07.2018 20:00:00 26,9 12,7 26,9 31,9 28,7 20,8 8 4 18 10 NE 1013,6 70 55 0,0
14.07.2018 19:00:00 29,2 9,6 32,7 33,8 28,6 20,8 6 3 15 8 NE 1013,4 62 60 0,0
14.07.2018 18:00:00 29,6 10,4 35,5 34,6 28,3 20,8 6 4 13 7 E 1013,5 51 56 0,0
14.07.2018 17:00:00 28,5 12,8 32,6 34,5 27,9 20,8 7 4 16 9 SE 1014,2 65 39 0,0
14.07.2018 16:00:00 29,7 13,6 34,6 35,9 27,2 20,7 9 5 18 10 E 1014,3 51 56 0,0
14.07.2018 15:00:00 28,9 12,6 35,0 35,5 26,4 20,7 8 4 16 9 S 1014,8 42 60 0,0
14.07.2018 14:00:00 26,1 15,5 28,6 33,2 25,7 20,7 10 5 16 9 E 1016,0 58 47 0,0

tt = Température de l'air
td = dewpoint
tt 5cm = Température de l'air 5cm
tt -5cm = Température de l'air -5cm
tt -20cm = Température de l'air -20cm
tt -100cm = Température de l'air -100cm
ff = Vitesse du vent
fx = gusts
dd = Direction du vent
ppp = reduced air pressure
vv = visibility
sd = Ensoleillement
rr = Quantités de précipitations

stations d'obs. à proximité